Location: Baumgartsau
(48.4586°N, 14.0864°E)
Time: 12:35:34
(UTC+00:00)

BREEZE M DEB (TANK) - Pass Details

Date: 15 August 2020
Orbit: 304 x 11869 km, 49.5° (Epoch: 20 September)

Event Time Altitude Azimuth Distance (km) Brightness Sun altitude
Exits shadow 21:50:05 18° 131° (SE) 9,045 7.9 -25.5°
Maximum altitude 21:53:38 18° 125° (SE) 8,369 7.8 -25.7°
Drops below altitude 10° 22:06:47 10° 91° (E) 6,351 7.5 -26.4°
Sets 22:11:56 0° 74° (ENE) 6,136 7.6 -26.6°
